Regional Weather Roundup
Issued by NWS

Home | Current Version | Previous Version | Text Only | Print | Product List | Glossary On
Versions: 1 2 3 4 5 6 7 8 9 10 11 12 13 14 15 16 17 18 19 20 21 22 23 24 25 26 27
000
ASUS45 KBOI 011310
RWRID

IDAHO REGIONAL WEATHER ROUNDUP
NATIONAL WEATHER SERVICE BOISE ID
700 AM MDT SAT OCT 01 2016

NOTE: "FAIR" INDICATES FEW OR NO CLOUDS BELOW 12000 FEET
WITH NO SIGNIFICANT WEATHER AND/OR OBSTRUCTIONS TO VISIBILITY

IDZ012-014-011400-
SOUTHWEST IDAHO


CITY           SKY/WX    TMP DP  RH WIND       PRES   REMARKS
BOISE          CLOUDY    63  47  55 S6        29.93R
CALDWELL       CLOUDY    65  36  34 SW5       29.92R
MOUNTAIN HOME  CLOUDY    62  52  69 SE6       29.93R
$$

IDZ016-017-011400-
SOUTHCENTRAL IDAHO


CITY           SKY/WX    TMP DP  RH WIND       PRES   REMARKS
BURLEY         PTCLDY    50  48  93 W5        29.97S
JEROME         PTCLDY    55  51  86 NE7       29.99R
TWIN FALLS     PTCLDY    59  46  62 S10       29.99R
$$

IDZ019>023-011400-
SOUTHEAST IDAHO


CITY           SKY/WX    TMP DP  RH WIND       PRES   REMARKS
IDAHO FALLS    PTCLDY    48  44  86 NW3       30.02F
POCATELLO      CLOUDY    50  46  86 W16G28    30.01R
REXBURG        PTCLDY    46  44  93 NE7       30.03F
$$

IDZ006-010-011-018-031-032-011400-
CENTRAL IDAHO MOUNTAINS


CITY           SKY/WX    TMP DP  RH WIND       PRES   REMARKS
MCCALL         CLOUDY    57  32  38 SE8       29.95F
HAILEY         PTCLDY    52  48  87 NW10      30.06F
STANLEY          N/A     50  45  83 SE9       30.07F
SALMON         CLOUDY    54  48  82 E5        30.02S
CHALLIS        CLOUDY    48  47  96 CALM      30.05S
$$

IDZ002-004-006-007-026-011400-
NORTHERN IDAHO


CITY           SKY/WX    TMP DP  RH WIND       PRES   REMARKS
LEWISTON       CLOUDY    56  41  57 CALM      29.95R
LOWELL           N/A     54  52  93 CALM      29.98R
COEUR D`ALENE  LGT RAIN  54  50  86 SW7       29.95R
MULLAN PASS    FOG       43  42  97 N6        29.98R VSB 1/4
$$




USA.gov is the U.S. government's official web portal to all federal, state and local government web resources and services.